{"data":{"norad_id":64235,"epoch":"2026-05-25T04:16:04.487808Z","epoch_age_seconds":69932,"freshness":"FRESH","line1":"1 64235U 25119C   26145.17782972  .00172387  00000+0  13179-2 0  9999","line2":"2 64235  43.0015 108.1284 0001459 244.0261 116.0457 15.70863900 57271","mean_motion":15.708639,"eccentricity":0.0001459,"inclination_deg":43.0015,"raan_deg":108.1284,"arg_perigee_deg":244.0261,"mean_anomaly_deg":116.0457,"bstar":0.0013179,"rev_number":5727,"period_min":91.66930375063,"perigee_km":355.44417891032,"apogee_km":357.40932461308,"semimajor_km":6734.5637517617,"source":"CELESTRAK","updated_at":"2026-05-25T13:38:20.350884Z"}}